TimeCDT,TemperatureF,Dew PointF,Humidity,Sea Level PressureIn,VisibilityMPH,Wind Direction,Wind SpeedMPH,Gust SpeedMPH,PrecipitationIn,Events,Conditions,WindDirDegrees,DateUTC
12:52 AM,75.0,66.9,76,30.15,10.0,SE,10.4,-,N/A,,Clear,140,2013-08-25 05:52:00
1:52 AM,73.9,68.0,82,30.14,9.0,SE,9.2,-,N/A,,Clear,140,2013-08-25 06:52:00
2:52 AM,73.0,68.0,84,30.14,8.0,SSE,9.2,-,N/A,,Clear,150,2013-08-25 07:52:00
3:52 AM,72.0,68.0,87,30.16,8.0,SSE,9.2,-,N/A,,Clear,160,2013-08-25 08:52:00
4:52 AM,71.1,66.9,87,30.17,7.0,SSE,8.1,-,N/A,,Clear,150,2013-08-25 09:52:00
5:52 AM,71.1,68.0,90,30.18,6.0,SSE,8.1,-,N/A,,Clear,150,2013-08-25 10:52:00
6:52 AM,70.0,68.0,93,30.21,4.0,SSE,6.9,-,N/A,,Clear,150,2013-08-25 11:52:00
7:52 AM,73.0,69.1,87,30.22,6.0,SE,8.1,-,N/A,,Clear,140,2013-08-25 12:52:00
8:52 AM,75.9,70.0,82,30.22,9.0,SSE,11.5,-,N/A,,Clear,160,2013-08-25 13:52:00
9:52 AM,79.0,71.1,77,30.21,8.0,SSE,8.1,-,N/A,,Clear,160,2013-08-25 14:52:00
10:52 AM,82.9,72.0,69,30.21,9.0,South,9.2,-,N/A,,Clear,190,2013-08-25 15:52:00
11:52 AM,84.9,71.1,63,30.20,10.0,SW,6.9,-,N/A,,Clear,220,2013-08-25 16:52:00
12:52 PM,87.1,68.0,53,30.18,10.0,SW,5.8,-,N/A,,Partly Cloudy,220,2013-08-25 17:52:00
1:52 PM,89.1,66.9,48,30.17,10.0,South,3.5,-,N/A,,Partly Cloudy,190,2013-08-25 18:52:00
2:52 PM,89.1,64.9,45,30.16,10.0,Calm,Calm,-,N/A,,Clear,0,2013-08-25 19:52:00
3:52 PM,89.1,66.0,46,30.14,10.0,Variable,5.8,-,N/A,,Mostly Cloudy,0,2013-08-25 20:52:00
4:52 PM,90.0,66.0,45,30.13,10.0,South,9.2,-,N/A,,Scattered Clouds,170,2013-08-25 21:52:00
5:52 PM,89.1,66.0,46,30.14,10.0,SSE,8.1,-,N/A,,Partly Cloudy,160,2013-08-25 22:52:00
6:52 PM,87.1,64.9,48,30.14,10.0,SSE,4.6,-,N/A,,Clear,160,2013-08-25 23:52:00
7:52 PM,81.0,68.0,65,30.14,10.0,SE,4.6,-,N/A,,Clear,130,2013-08-26 00:52:00
8:52 PM,78.1,66.9,68,30.16,10.0,SE,5.8,-,N/A,,Clear,130,2013-08-26 01:52:00
9:52 PM,75.9,66.9,74,30.17,10.0,SE,8.1,-,N/A,,Clear,130,2013-08-26 02:52:00
10:52 PM,77.0,68.0,74,30.18,10.0,SSE,8.1,-,N/A,,Clear,160,2013-08-26 03:52:00
11:52 PM,77.0,69.1,76,30.18,10.0,SSE,8.1,-,N/A,,Clear,160,2013-08-26 04:52:00